QPF
0.02 0.02 0.03 0.05 0.06 0.07 0.07 0.07 0.07 0.07 0.07 0.06 0.05 0.06 0.05 0.06 0.07 0.05 0.06 0.08 0.09 0.11 0.11 0.10 0.10 0.08 0.08 0.09 0.09 0.07 0.05 0.05 0.05 0.06 0.06 0.07 0.07 0.07 0.07 0.08 0.09 0.10 0.11
0.02 0.02 0.02 0.03 0.04 0.05 0.05 0.04 0.03 0.04 0.05 0.05 0.05 0.05 0.07 0.09 0.10 0.08 0.05 0.07 0.09 0.07 0.09 0.11 0.11 0.10 0.11 0.15 0.14 0.09 0.11 0.13 0.09 0.06 0.06 0.06 0.07 0.05 0.05 0.06 0.07 0.07 0.07
0.02 0.02 0.03 0.03 0.03 0.04 0.04 0.03 0.02 0.02 0.03 0.04 0.05 0.05 0.05 0.06 0.08 0.09 0.07 0.10 0.09 0.07 0.07 0.09 0.10 0.09 0.09 0.11 0.12 0.09 0.10 0.12 0.08 0.06 0.06 0.07 0.08 0.05 0.04 0.05 0.05 0.05 0.04
0.02 0.03 0.03 0.03 0.03 0.02 0.02 0.03 0.04 0.04 0.04 0.04 0.04 0.05 0.04 0.04 0.05 0.06 0.06 0.08 0.08 0.05 0.05 0.06 0.08 0.08 0.09 0.08 0.08 0.07 0.06 0.08 0.07 0.06 0.06 0.07 0.07 0.05 0.05 0.05 0.05 0.04 0.03
0.02 0.02 0.02 0.03 0.02 0.02 0.02 0.03 0.04 0.04 0.04 0.05 0.04 0.04 0.04 0.04 0.04 0.05 0.04 0.05 0.06 0.05 0.05 0.05 0.06 0.07 0.07 0.06 0.06 0.06 0.05 0.06 0.08 0.06 0.05 0.04 0.05 0.05 0.05 0.04 0.03 0.04 0.03
0.03 0.03 0.03 0.02 0.02 0.02 0.02 0.04 0.05 0.04 0.04 0.05 0.04 0.04 0.04 0.05 0.06 0.06 0.04 0.04 0.06 0.06 0.06 0.05 0.06 0.07 0.08 0.09 0.08 0.07 0.07 0.07 0.08 0.07 0.04 0.04 0.06 0.08 0.06 0.05 0.04 0.04 0.04
0.03 0.03 0.03 0.02 0.02 0.02 0.02 0.04 0.04 0.03 0.03 0.05 0.06 0.04 0.04 0.04 0.04 0.04 0.04 0.04 0.04 0.06 0.07 0.07 0.06 0.08 0.12 0.15 0.11 0.08 0.08 0.08 0.07 0.07 0.05 0.04 0.05 0.07 0.07 0.06 0.05 0.05 0.06
0.04 0.04 0.04 0.03 0.03 0.04 0.04 0.05 0.07 0.03 0.03 0.05 0.06 0.05 0.04 0.04 0.04 0.03 0.04 0.05 0.05 0.06 0.07 0.06 0.06 0.06 0.07 0.09 0.07 0.06 0.06 0.08 0.08 0.08 0.06 0.04 0.04 0.04 0.05 0.05 0.04 0.05 0.06
0.04 0.05 0.05 0.04 0.05 0.05 0.04 0.04 0.06 0.04 0.03 0.03 0.04 0.05 0.04 0.03 0.03 0.03 0.03 0.04 0.04 0.04 0.06 0.05 0.06 0.05 0.05 0.05 0.05 0.05 0.06 0.07 0.08 0.09 0.09 0.06 0.05 0.05 0.05 0.06 0.04 0.04 0.04
0.05 0.07 0.06 0.05 0.04 0.05 0.04 0.03 0.03 0.03 0.02 0.02 0.03 0.04 0.03 0.04 0.03 0.03 0.04 0.05 0.03 0.03 0.04 0.05 0.06 0.06 0.06 0.07 0.05 0.04 0.05 0.07 0.08 0.10 0.10 0.09 0.06 0.05 0.05 0.07 0.07 0.07 0.06
0.05 0.06 0.05 0.04 0.03 0.03 0.03 0.03 0.03 0.03 0.02 0.02 0.02 0.04 0.04 0.05 0.05 0.04 0.03 0.06 0.06 0.05 0.03 0.04 0.04 0.05 0.06 0.08 0.09 0.07 0.06 0.07 0.07 0.07 0.09 0.10 0.07 0.05 0.05 0.07 0.08 0.08 0.08
0.03 0.03 0.03 0.03 0.03 0.03 0.02 0.02 0.02 0.02 0.02 0.02 0.02 0.03 0.03 0.03 0.04 0.03 0.02 0.03 0.05 0.05 0.03 0.04 0.04 0.02 0.02 0.03 0.04 0.07 0.07 0.08 0.06 0.07 0.08 0.09 0.07 0.05 0.06 0.06 0.07 0.08 0.07
0.01 0.02 0.02 0.03 0.04 0.03 0.03 0.02 0.02 0.02 0.02 0.01 0.01 0.02 0.02 0.03 0.03 0.04 0.03 0.03 0.03 0.04 0.05 0.04 0.03 0.02 0.02 0.02 0.02 0.03 0.04 0.07 0.07 0.05 0.05 0.05 0.04 0.04 0.06 0.06 0.06 0.06 0.06
0.01 0.01 0.01 0.02 0.02 0.02 0.02 0.02 0.02 0.02 0.02 0.01 0.01 0.01 0.01 0.02 0.03 0.04 0.04 0.04 0.04 0.03 0.04 0.04 0.04 0.04 0.03 0.02 0.02 0.02 0.02 0.05 0.07 0.05 0.04 0.05 0.04 0.03 0.04 0.05 0.05 0.04 0.03
0.01 0.01 0.02 0.01 0.01 0.01 0.01 0.01 0.01 0.02 0.02 0.01 0.01 0.02 0.02 0.02 0.03 0.04 0.04 0.04 0.04 0.04 0.03 0.03 0.04 0.04 0.03 0.03 0.03 0.03 0.03 0.05 0.06 0.06 0.06 0.05 0.05 0.04 0.03 0.03 0.04 0.03 0.03
0.02 0.01 0.02 0.02 0.02 0.01 0.02 0.02 0.02 0.03 0.03 0.02 0.02 0.02 0.02 0.03 0.03 0.03 0.04 0.06 0.06 0.05 0.03 0.03 0.03 0.03 0.05 0.04 0.05 0.05 0.05 0.06 0.05 0.06 0.06 0.06 0.06 0.06 0.05 0.04 0.04 0.04 0.03
0.01 0.01 0.01 0.02 0.02 0.02 0.02 0.03 0.03 0.02 0.03 0.03 0.02 0.02 0.02 0.03 0.02 0.02 0.03 0.05 0.06 0.06 0.04 0.03 0.04 0.04 0.05 0.06 0.06 0.05 0.05 0.07 0.07 0.07 0.06 0.05 0.05 0.06 0.07 0.05 0.04 0.04 0.04
0.01 0.01 0.03 0.03 0.03 0.03 0.03 0.03 0.03 0.03 0.03 0.03 0.03 0.03 0.03 0.03 0.02 0.02 0.03 0.04 0.05 0.06 0.05 0.04 0.04 0.04 0.03 0.06 0.07 0.04 0.04 0.05 0.07 0.07 0.08 0.08 0.07 0.07 0.08 0.07 0.06 0.06 0.05
0.02 0.02 0.03 0.03 0.03 0.03 0.03 0.04 0.03 0.03 0.03 0.02 0.02 0.03 0.02 0.03 0.02 0.03 0.03 0.05 0.06 0.06 0.06 0.05 0.04 0.04 0.03 0.02 0.03 0.03 0.03 0.03 0.04 0.05 0.06 0.08 0.10 0.10 0.09 0.09 0.09 0.09 0.09
0.03 0.03 0.04 0.04 0.05 0.04 0.04 0.04 0.04 0.03 0.02 0.02 0.01 0.01 0.01 0.03 0.03 0.04 0.05 0.05 0.05 0.06 0.08 0.06 0.05 0.05 0.05 0.03 0.03 0.02 0.02 0.01 0.02 0.02 0.04 0.06 0.07 0.09 0.11 0.11 0.09 0.09 0.09
0.04 0.05 0.05 0.05 0.04 0.05 0.05 0.05 0.04 0.03 0.02 0.02 0.02 0.01 0.01 0.02 0.03 0.05 0.06 0.06 0.08 0.09 0.09 0.08 0.08 0.08 0.08 0.07 0.04 0.03 0.02 0.03 0.03 0.03 0.03 0.04 0.07 0.08 0.10 0.11 0.11 0.11 0.10
0.04 0.04 0.04 0.04 0.04 0.04 0.04 0.04 0.04 0.03 0.03 0.03 0.03 0.02 0.02 0.02 0.02 0.03 0.04 0.05 0.06 0.09 0.11 0.12 0.11 0.10 0.10 0.08 0.07 0.06 0.04 0.03 0.03 0.03 0.04 0.04 0.05 0.07 0.07 0.08 0.11 0.14 0.11
0.05 0.05 0.04 0.03 0.04 0.04 0.04 0.04 0.05 0.04 0.04 0.04 0.03 0.02 0.03 0.02 0.03 0.03 0.03 0.04 0.03 0.04 0.05 0.06 0.06 0.06 0.07 0.07 0.08 0.07 0.05 0.03 0.02 0.03 0.04 0.05 0.05 0.06 0.06 0.07 0.11 0.14 0.10
0.05 0.04 0.03 0.03 0.04 0.02 0.03 0.04 0.05 0.05 0.05 0.04 0.04 0.03 0.03 0.02 0.02 0.04 0.04 0.03 0.03 0.03 0.03 0.03 0.02 0.03 0.03 0.05 0.06 0.07 0.06 0.03 0.02 0.03 0.04 0.04 0.04 0.04 0.04 0.06 0.11 0.14 0.10
0.03 0.03 0.03 0.03 0.03 0.02 0.03 0.03 0.05 0.05 0.05 0.04 0.05 0.03 0.03 0.03 0.04 0.05 0.04 0.03 0.03 0.03 0.03 0.03 0.02 0.02 0.03 0.03 0.03 0.04 0.03 0.02 0.02 0.02 0.03 0.04 0.04 0.04 0.03 0.04 0.08 0.11 0.10
0.04 0.03 0.02 0.02 0.02 0.02 0.02 0.03 0.05 0.06 0.05 0.04 0.05 0.05 0.03 0.03 0.04 0.05 0.04 0.04 0.03 0.04 0.05 0.05 0.04 0.04 0.03 0.02 0.02 0.02 0.03 0.03 0.02 0.02 0.03 0.04 0.03 0.04 0.04 0.03 0.05 0.06 0.07
MSLP
995.26 992.97 990.34 987.70 985.42 983.84 983.21 983.66 985.11 987.35 990.06 992.83 995.37 997.43 998.92 999.89 1000.48 1000.88 1001.29 1001.86 1002.66 1003.67 1004.82 1006.00 1007.09 1008.04 1008.82 1009.46 1010.00 1010.51 1011.05 1011.65 1012.30 1012.99 1013.67 1014.33 1014.93 1015.48 1015.98 1016.47 1016.96 1017.48 1018.03
997.37 995.89 994.17 992.44 990.93 989.90 989.52 989.88 990.92 992.49 994.36 996.24 997.92 999.24 1000.17 1000.74 1001.08 1001.35 1001.70 1002.23 1002.97 1003.91 1004.95 1006.02 1007.01 1007.88 1008.61 1009.22 1009.77 1010.30 1010.87 1011.48 1012.15 1012.85 1013.53 1014.19 1014.79 1015.34 1015.86 1016.36 1016.87 1017.40 1017.95
998.98 998.12 997.14 996.15 995.30 994.74 994.57 994.86 995.57 996.59 997.78 998.95 999.97 1000.76 1001.29 1001.61 1001.83 1002.05 1002.37 1002.86 1003.53 1004.34 1005.23 1006.13 1006.97 1007.71 1008.35 1008.92 1009.46 1010.01 1010.60 1011.24 1011.92 1012.62 1013.31 1013.96 1014.57 1015.13 1015.67 1016.19 1016.72 1017.27 1017.84
1000.12 999.67 999.20 998.74 998.37 998.16 998.16 998.40 998.86 999.48 1000.18 1000.87 1001.47 1001.93 1002.27 1002.51 1002.72 1002.96 1003.30 1003.75 1004.31 1004.96 1005.65 1006.33 1006.96 1007.54 1008.07 1008.57 1009.08 1009.63 1010.23 1010.88 1011.57 1012.27 1012.96 1013.61 1014.23 1014.81 1015.37 1015.93 1016.50 1017.08 1017.66
1000.97 1000.72 1000.53 1000.40 1000.33 1000.34 1000.44 1000.64 1000.93 1001.30 1001.71 1002.12 1002.51 1002.85 1003.16 1003.44 1003.73 1004.04 1004.40 1004.80 1005.24 1005.70 1006.16 1006.59 1006.99 1007.38 1007.77 1008.19 1008.66 1009.19 1009.78 1010.42 1011.10 1011.79 1012.46 1013.12 1013.75 1014.36 1014.96 1015.57 1016.18 1016.80 1017.42
1001.77 1001.56 1001.48 1001.49 1001.56 1001.68 1001.82 1001.98 1002.17 1002.39 1002.65 1002.95 1003.28 1003.64 1004.02 1004.41 1004.82 1005.21 1005.58 1005.92 1006.22 1006.47 1006.69 1006.87 1007.05 1007.25 1007.50 1007.82 1008.22 1008.71 1009.26 1009.87 1010.52 1011.17 1011.83 1012.48 1013.13 1013.77 1014.43 1015.10 1015.78 1016.45 1017.11
1002.71 1002.46 1002.37 1002.40 1002.51 1002.64 1002.77 1002.89 1003.02 1003.16 1003.36 1003.63 1003.98 1004.41 1004.89 1005.40 1005.90 1006.35 1006.72 1006.98 1007.13 1007.19 1007.18 1007.14 1007.12 1007.15 1007.27 1007.49 1007.81 1008.23 1008.72 1009.27 1009.85 1010.45 1011.07 1011.72 1012.38 1013.08 1013.81 1014.55 1015.31 1016.04 1016.75
1003.88 1003.56 1003.42 1003.42 1003.49 1003.59 1003.68 1003.75 1003.82 1003.92 1004.09 1004.36 1004.74 1005.22 1005.78 1006.36 1006.90 1007.36 1007.68 1007.84 1007.86 1007.75 1007.57 1007.36 1007.19 1007.10 1007.11 1007.24 1007.47 1007.80 1008.19 1008.64 1009.13 1009.66 1010.23 1010.86 1011.55 1012.30 1013.10 1013.94 1014.78 1015.59 1016.35
1005.21 1004.85 1004.67 1004.62 1004.64 1004.69 1004.73 1004.75 1004.77 1004.82 1004.95 1005.20 1005.57 1006.05 1006.61 1007.19 1007.71 1008.12 1008.36 1008.43 1008.34 1008.12 1007.83 1007.53 1007.27 1007.10 1007.04 1007.08 1007.22 1007.44 1007.71 1008.03 1008.40 1008.83 1009.34 1009.95 1010.66 1011.46 1012.35 1013.28 1014.20 1015.09 1015.91
1006.55 1006.19 1006.00 1005.92 1005.91 1005.92 1005.91 1005.88 1005.84 1005.83 1005.91 1006.09 1006.39 1006.81 1007.30 1007.80 1008.24 1008.56 1008.72 1008.71 1008.55 1008.28 1007.95 1007.62 1007.35 1007.16 1007.05 1007.03 1007.06 1007.15 1007.28 1007.44 1007.67 1007.99 1008.43 1009.01 1009.74 1010.61 1011.57 1012.59 1013.60 1014.56 1015.43
1007.69 1007.38 1007.21 1007.13 1007.10 1007.08 1007.04 1006.96 1006.87 1006.80 1006.80 1006.89 1007.09 1007.40 1007.76 1008.14 1008.46 1008.68 1008.76 1008.70 1008.52 1008.26 1007.96 1007.68 1007.44 1007.26 1007.13 1007.05 1006.99 1006.94 1006.91 1006.91 1006.99 1007.20 1007.56 1008.11 1008.85 1009.76 1010.80 1011.89 1012.98 1014.00 1014.91
1008.50 1008.25 1008.11 1008.04 1008.02 1007.99 1007.93 1007.82 1007.69 1007.57 1007.48 1007.48 1007.57 1007.74 1007.96 1008.20 1008.41 1008.53 1008.56 1008.48 1008.33 1008.13 1007.92 1007.72 1007.55 1007.40 1007.27 1007.14 1006.98 1006.79 1006.60 1006.45 1006.39 1006.48 1006.77 1007.29 1008.04 1008.99 1010.07 1011.22 1012.36 1013.42 1014.36
1008.94 1008.73 1008.62 1008.58 1008.56 1008.53 1008.46 1008.34 1008.18 1008.01 1007.87 1007.79 1007.77 1007.83 1007.93 1008.06 1008.16 1008.22 1008.23 1008.17 1008.08 1007.97 1007.86 1007.76 1007.67 1007.58 1007.45 1007.26 1007.01 1006.71 1006.38 1006.09 1005.91 1005.91 1006.13 1006.62 1007.37 1008.33 1009.44 1010.62 1011.78 1012.85 1013.80
1009.10 1008.90 1008.80 1008.75 1008.73 1008.70 1008.62 1008.50 1008.33 1008.15 1007.98 1007.85 1007.77 1007.75 1007.77 1007.81 1007.86 1007.88 1007.89 1007.87 1007.85 1007.83 1007.83 1007.83 1007.81 1007.76 1007.64 1007.41 1007.10 1006.70 1006.27 1005.88 1005.61 1005.53 1005.71 1006.17 1006.90 1007.85 1008.95 1010.12 1011.27 1012.33 1013.26
1009.12 1008.92 1008.79 1008.73 1008.69 1008.64 1008.56 1008.44 1008.28 1008.10 1007.93 1007.79 1007.68 1007.62 1007.60 1007.60 1007.62 1007.63 1007.65 1007.67 1007.71 1007.77 1007.84 1007.92 1007.96 1007.94 1007.82 1007.58 1007.22 1006.77 1006.29 1005.84 1005.52 1005.41 1005.56 1005.99 1006.68 1007.60 1008.66 1009.78 1010.88 1011.89 1012.79
1009.21 1008.98 1008.82 1008.72 1008.65 1008.57 1008.48 1008.36 1008.21 1008.05 1007.89 1007.76 1007.65 1007.59 1007.55 1007.54 1007.54 1007.55 1007.57 1007.62 1007.69 1007.79 1007.90 1008.02 1008.09 1008.09 1007.98 1007.74 1007.38 1006.94 1006.45 1006.01 1005.69 1005.57 1005.71 1006.10 1006.75 1007.60 1008.58 1009.62 1010.63 1011.56 1012.39
1009.51 1009.25 1009.06 1008.92 1008.81 1008.70 1008.59 1008.46 1008.32 1008.17 1008.03 1007.91 1007.82 1007.76 1007.71 1007.68 1007.67 1007.66 1007.67 1007.70 1007.76 1007.85 1007.97 1008.08 1008.16 1008.18 1008.09 1007.89 1007.57 1007.18 1006.76 1006.37 1006.10 1006.01 1006.14 1006.51 1007.09 1007.84 1008.71 1009.62 1010.51 1011.34 1012.08
1010.08 1009.81 1009.59 1009.43 1009.29 1009.15 1009.02 1008.87 1008.72 1008.57 1008.43 1008.32 1008.22 1008.15 1008.09 1008.03 1007.97 1007.92 1007.87 1007.85 1007.86 1007.91 1007.99 1008.07 1008.14 1008.17 1008.12 1007.98 1007.76 1007.47 1007.15 1006.87 1006.69 1006.65 1006.78 1007.11 1007.61 1008.25 1008.97 1009.73 1010.48 1011.18 1011.83
1010.86 1010.61 1010.41 1010.24 1010.08 1009.93 1009.77 1009.59 1009.42 1009.25 1009.09 1008.96 1008.84 1008.72 1008.62 1008.50 1008.38 1008.25 1008.12 1008.01 1007.93 1007.90 1007.91 1007.95 1008.00 1008.04 1008.04 1007.99 1007.88 1007.73 1007.56 1007.41 1007.33 1007.36 1007.51 1007.79 1008.20 1008.71 1009.27 1009.87 1010.47 1011.04 1011.59
1011.74 1011.55 1011.39 1011.24 1011.09 1010.93 1010.75 1010.55 1010.34 1010.13 1009.93 1009.74 1009.56 1009.38 1009.20 1009.00 1008.79 1008.56 1008.32 1008.10 1007.92 1007.79 1007.71 1007.69 1007.72 1007.78 1007.84 1007.88 1007.90 1007.90 1007.88 1007.88 1007.91 1008.00 1008.17 1008.41 1008.73 1009.11 1009.52 1009.96 1010.41 1010.86 1011.33
1012.58 1012.48 1012.39 1012.29 1012.17 1012.01 1011.81 1011.58 1011.33 1011.06 1010.80 1010.54 1010.28 1010.02 1009.74 1009.45 1009.12 1008.78 1008.43 1008.09 1007.79 1007.55 1007.39 1007.31 1007.31 1007.37 1007.48 1007.62 1007.76 1007.90 1008.03 1008.16 1008.30 1008.45 1008.63 1008.84 1009.08 1009.35 1009.63 1009.93 1010.26 1010.61 1011.00
1013.29 1013.28 1013.27 1013.23 1013.15 1013.00 1012.80 1012.54 1012.24 1011.92 1011.58 1011.24 1010.89 1010.54 1010.16 1009.77 1009.34 1008.89 1008.43 1007.98 1007.57 1007.23 1006.98 1006.84 1006.80 1006.86 1007.00 1007.20 1007.43 1007.68 1007.93 1008.17 1008.40 1008.61 1008.81 1009.00 1009.18 1009.36 1009.55 1009.76 1009.99 1010.27 1010.61
1013.81 1013.89 1013.95 1013.98 1013.94 1013.81 1013.61 1013.32 1012.98 1012.60 1012.19 1011.76 1011.34 1010.89 1010.43 1009.95 1009.43 1008.89 1008.34 1007.81 1007.31 1006.88 1006.55 1006.34 1006.25 1006.28 1006.42 1006.65 1006.93 1007.25 1007.57 1007.89 1008.18 1008.44 1008.66 1008.85 1009.01 1009.15 1009.29 1009.45 1009.64 1009.88 1010.20
1014.18 1014.33 1014.45 1014.52 1014.51 1014.41 1014.19 1013.89 1013.50 1013.07 1012.60 1012.11 1011.62 1011.11 1010.58 1010.03 1009.46 1008.86 1008.25 1007.64 1007.08 1006.58 1006.18 1005.89 1005.74 1005.72 1005.82 1006.02 1006.30 1006.64 1006.99 1007.34 1007.67 1007.97 1008.22 1008.42 1008.60 1008.75 1008.89 1009.04 1009.23 1009.48 1009.80
1014.48 1014.66 1014.82 1014.92 1014.92 1014.82 1014.59 1014.26 1013.85 1013.37 1012.86 1012.33 1011.78 1011.23 1010.67 1010.09 1009.48 1008.85 1008.21 1007.57 1006.96 1006.40 1005.93 1005.57 1005.34 1005.24 1005.26 1005.40 1005.64 1005.94 1006.27 1006.63 1006.97 1007.29 1007.57 1007.82 1008.03 1008.23 1008.41 1008.61 1008.84 1009.12 1009.46
1014.78 1014.98 1015.15 1015.25 1015.24 1015.12 1014.88 1014.52 1014.08 1013.58 1013.04 1012.48 1011.91 1011.35 1010.77 1010.18 1009.57 1008.94 1008.29 1007.63 1006.99 1006.40 1005.87 1005.43 1005.11 1004.91 1004.84 1004.88 1005.03 1005.25 1005.54 1005.86 1006.19 1006.52 1006.83 1007.13 1007.40 1007.67 1007.93 1008.20 1008.49 1008.82 1009.19
Thickness
5778 5778 5777 5776 5776 5775 5774 5773 5773 5772 5772 5771 5771 5771 5769 5769 5767 5767 5766 5766 5765 5765 5764 5762 5760 5759 5758 5757 5756 5755 5754 5754 5753 5752 5750 5748 5747 5745 5744 5742 5741 5739 5738
5779 5777 5776 5775 5775 5774 5774 5773 5772 5771 5770 5770 5769 5769 5768 5767 5766 5766 5765 5765 5764 5764 5762 5761 5759 5758 5757 5756 5755 5754 5753 5752 5751 5750 5749 5747 5746 5745 5744 5742 5740 5739 5738
5778 5777 5775 5774 5773 5773 5773 5772 5771 5770 5768 5768 5767 5766 5766 5766 5765 5765 5764 5763 5762 5762 5761 5759 5758 5757 5756 5755 5754 5753 5752 5751 5750 5749 5747 5746 5745 5744 5743 5741 5740 5738 5737
5778 5776 5774 5773 5772 5772 5771 5770 5768 5766 5765 5764 5764 5764 5764 5763 5763 5763 5762 5761 5761 5760 5759 5758 5757 5755 5754 5753 5753 5752 5750 5749 5748 5747 5746 5745 5744 5743 5742 5740 5739 5737 5736
5776 5775 5773 5771 5771 5770 5768 5768 5765 5764 5761 5761 5761 5762 5761 5761 5760 5761 5760 5759 5758 5757 5756 5756 5755 5753 5752 5751 5751 5750 5749 5747 5746 5746 5745 5744 5743 5742 5740 5739 5738 5737 5735
5774 5772 5771 5769 5768 5766 5765 5764 5762 5762 5760 5759 5760 5759 5758 5758 5758 5757 5757 5756 5755 5754 5753 5752 5752 5751 5750 5749 5749 5748 5747 5746 5745 5744 5743 5742 5741 5740 5739 5738 5737 5736 5735
5771 5770 5768 5767 5765 5763 5761 5761 5759 5757 5756 5756 5753 5750 5752 5754 5754 5754 5754 5753 5752 5752 5750 5749 5749 5748 5747 5747 5746 5746 5745 5744 5743 5742 5741 5740 5739 5738 5737 5736 5735 5734 5733
5769 5768 5765 5763 5761 5759 5758 5756 5755 5752 5752 5752 5747 5742 5738 5741 5747 5751 5750 5749 5749 5749 5747 5746 5745 5745 5744 5744 5744 5743 5742 5742 5741 5740 5739 5738 5737 5736 5735 5735 5734 5732 5732
5766 5764 5762 5760 5758 5756 5754 5753 5752 5749 5745 5747 5746 5740 5733 5729 5734 5741 5744 5745 5745 5744 5744 5744 5743 5742 5742 5741 5741 5741 5740 5739 5738 5738 5737 5736 5735 5734 5733 5732 5731 5730 5730
5762 5761 5759 5757 5755 5753 5751 5750 5748 5746 5743 5740 5741 5741 5738 5735 5729 5728 5735 5739 5740 5740 5740 5740 5740 5739 5738 5738 5738 5738 5737 5736 5736 5735 5734 5733 5733 5732 5731 5730 5729 5728 5728
5759 5757 5756 5753 5751 5749 5747 5745 5744 5742 5740 5737 5735 5734 5733 5732 5730 5725 5723 5728 5732 5735 5736 5736 5735 5735 5734 5734 5734 5734 5734 5733 5733 5732 5731 5730 5730 5729 5728 5727 5726 5726 5725
5753 5753 5752 5749 5747 5745 5743 5741 5739 5737 5735 5733 5731 5730 5727 5725 5723 5721 5719 5719 5721 5727 5731 5732 5731 5730 5730 5730 5730 5730 5730 5730 5729 5728 5728 5727 5726 5725 5725 5724 5723 5722 5721
5748 5748 5747 5745 5743 5741 5739 5738 5735 5733 5731 5728 5726 5725 5723 5722 5721 5720 5716 5715 5715 5719 5723 5725 5727 5726 5726 5726 5726 5726 5726 5726 5725 5724 5723 5722 5721 5721 5721 5720 5718 5718 5717
5745 5744 5743 5741 5739 5737 5735 5733 5730 5728 5726 5724 5723 5721 5719 5718 5717 5716 5713 5710 5707 5708 5712 5715 5720 5721 5721 5721 5721 5721 5721 5721 5720 5719 5718 5717 5717 5716 5715 5714 5713 5713 5712
5743 5740 5738 5736 5734 5732 5730 5728 5725 5722 5721 5719 5717 5716 5714 5713 5713 5712 5710 5708 5703 5699 5700 5707 5710 5714 5715 5715 5715 5715 5715 5715 5715 5714 5713 5713 5712 5711 5710 5709 5708 5707 5707
5738 5736 5733 5731 5729 5727 5724 5722 5719 5717 5715 5713 5711 5710 5708 5708 5707 5707 5706 5704 5702 5698 5695 5700 5703 5706 5708 5709 5708 5708 5708 5709 5709 5709 5708 5708 5707 5706 5705 5704 5704 5703 5703
5733 5731 5728 5726 5724 5721 5719 5716 5714 5712 5709 5707 5705 5704 5702 5702 5701 5700 5700 5698 5696 5694 5691 5693 5696 5699 5700 5700 5701 5702 5702 5702 5702 5702 5701 5701 5701 5701 5700 5699 5699 5699 5698
5729 5726 5724 5721 5719 5716 5714 5711 5709 5707 5704 5701 5699 5697 5696 5696 5694 5694 5693 5692 5691 5690 5687 5685 5688 5690 5692 5693 5693 5694 5695 5695 5695 5696 5695 5695 5695 5696 5695 5695 5695 5694 5694
5723 5721 5719 5716 5713 5711 5709 5707 5705 5702 5699 5697 5694 5692 5691 5690 5688 5687 5687 5686 5685 5685 5683 5680 5680 5682 5683 5685 5685 5685 5687 5688 5689 5689 5689 5689 5690 5691 5691 5690 5690 5690 5690
5717 5715 5713 5711 5708 5706 5704 5702 5700 5696 5694 5692 5690 5688 5686 5685 5683 5682 5681 5680 5679 5677 5675 5673 5673 5673 5674 5676 5675 5675 5676 5678 5680 5683 5683 5684 5684 5685 5685 5686 5686 5686 5686
5711 5709 5706 5704 5703 5701 5699 5696 5694 5692 5688 5686 5684 5683 5682 5681 5680 5679 5677 5675 5673 5670 5668 5666 5665 5664 5665 5665 5666 5667 5667 5670 5672 5674 5675 5677 5678 5678 5679 5680 5681 5682 5683
5704 5702 5700 5698 5696 5695 5694 5692 5689 5686 5684 5681 5678 5677 5676 5675 5675 5674 5673 5671 5669 5665 5662 5660 5658 5656 5657 5658 5660 5661 5660 5659 5661 5666 5666 5669 5671 5671 5673 5674 5676 5678 5680
5697 5695 5693 5691 5688 5688 5687 5686 5684 5681 5677 5675 5672 5670 5670 5670 5668 5666 5665 5664 5662 5662 5660 5657 5654 5654 5653 5653 5653 5654 5653 5652 5654 5659 5658 5659 5663 5664 5668 5669 5671 5674 5675
5690 5687 5685 5683 5681 5681 5680 5679 5677 5673 5670 5668 5666 5664 5661 5660 5660 5658 5657 5655 5654 5654 5654 5653 5652 5652 5652 5651 5650 5649 5649 5649 5651 5653 5653 5652 5655 5657 5661 5662 5665 5667 5668
5684 5681 5679 5677 5675 5673 5672 5671 5668 5664 5661 5660 5659 5657 5655 5653 5653 5652 5649 5647 5647 5648 5649 5649 5648 5648 5647 5647 5646 5643 5641 5640 5641 5644 5646 5645 5648 5649 5652 5654 5657 5659 5660
5678 5676 5672 5670 5667 5665 5664 5662 5660 5656 5653 5651 5651 5649 5648 5647 5646 5645 5642 5641 5639 5640 5640 5641 5641 5641 5641 5642 5641 5638 5636 5633 5633 5635 5640 5639 5640 5641 5642 5646 5649 5650 5651